Tracking 25620 objects as of 18-May-2022
HD Live streaming from Space Station
objects crossing your sky now

ONEWEB-0351

Track ONEWEB-0351 now!
10-day predictions
ONEWEB-0351 is classified as:


NORAD ID: 49215
Int'l Code: 2021-083AF
Perigee: 601.6 km
Apogee: 608.3 km
Inclination: 87.2 °
Period: 96.6 minutes
Semi major axis: 6975 km
RCS: Unknown
Launch date: September 14, 2021
Source: United Kingdom (UK)
Launch site: TYURATAM MISSILE AND SPACE COMPLEX (TTMTR)
aabbcc
Your satellite tracking list
Your tracking list is empty




NASA's NSSDC Master Catalog

Two Line Element Set (TLE):
1 49215U 21083AF  22138.58334491  .00025912  00000-0  26754-2 0  9993
2 49215  87.2035 240.9214 0004827  86.9377 162.2633 14.90042385  1304
Source of the keplerian elements: AFSPC